Weather History for Meriden, CT

Change the Weather History Date:

Wednesday, February 13, 2013

  Actual Average (KHVN) Record (KHVN)
Temperature  
Mean Temperature 30 °F -  
Max Temperature 41 °F 37 °F 34 °F (2014)
Min Temperature 19 °F 24 °F 23 °F (2014)
Degree Days  
Heating Degree Days 35    
Moisture  
Dew Point 22 °F    
Average Humidity 67    
Maximum Humidity 92    
Minimum Humidity 45    
Precipitation  
Precipitation 0.00 in - - ()
Sea Level Pressure  
Sea Level Pressure 29.83 in    
Wind  
Wind Speed 2 mph (WSW)    
Max Wind Speed 12 mph    
Max Gust Speed -    
Visibility 9 miles    
Events      
Averages and records for this station are not official NWS values.
T = Trace of Precipitation, MM = Missing Value Source: NWS Daily Summary

Daily Weather History Graph

Daily Weather History Graph

Search for Another Location

Airport:

Trip Planner

Search our weather history database for the weather conditions in past years. The results will help you decide how hot, cold, wet, or windy it might be!

Date:

Astronomy

Feb. 13, 2013 Rise Set
Actual Time 6:48 AM EST 5:22 PM EST
Civil Twilight 6:20 AM EST 5:51 PM EST
Nautical Twilight 5:47 AM EST 6:23 PM EST
Astronomical Twilight 5:15 AM EST 6:56 PM EST
Moon 8:13 AM EST (2/13) 9:26 PM EST (2/13)
Length of Visible Light 11h 31m
Length of Day
10h 33m
Waxing Crescent, 13% of the Moon is Illuminated
Feb 13
Waxing Crescent
Feb 17
First Quarter
Feb 25
Full
Mar 4
Last Quarter
Mar 11
New

Hourly Weather History & Observations

Time (EST) Temp. Windchill Dew Point Humidity Pressure Visibility Wind Dir Wind Speed Gust Speed Precip Events Conditions
12:53 AM 28.0 °F - 23.0 °F 81% 29.91 in 10.0 mi Calm Calm - N/A   Overcast
1:53 AM 27.0 °F - 21.9 °F 81% 29.92 in 10.0 mi Calm Calm - N/A   Overcast
2:53 AM 25.0 °F - 21.9 °F 88% 29.93 in 8.0 mi Calm Calm - N/A   Overcast
3:53 AM 24.1 °F - 21.0 °F 88% 29.92 in 9.0 mi Calm Calm - N/A   Partly Cloudy
4:53 AM 24.1 °F - 19.9 °F 84% 29.91 in 9.0 mi Calm Calm - N/A   Clear
5:53 AM 21.0 °F 16.2 °F 18.0 °F 88% 29.90 in 9.0 mi WNW 3.5 mph - N/A   Clear
6:53 AM 19.0 °F - 16.0 °F 88% 29.89 in 6.0 mi Calm Calm - N/A   Clear
7:53 AM 21.9 °F - 19.9 °F 92% 29.92 in 6.0 mi Calm Calm - N/A   Clear
8:53 AM 28.9 °F - 24.1 °F 82% 29.90 in 8.0 mi Calm Calm - N/A   Clear
9:53 AM 36.0 °F - 21.9 °F 57% 29.88 in 10.0 mi Calm Calm - N/A   Clear
10:24 AM 37.4 °F - 21.2 °F 52% 29.87 in 2.0 mi Calm Calm - N/A   Haze
10:33 AM 37.4 °F 34.9 °F 19.4 °F 48% 29.87 in 10.0 mi West 3.5 mph - N/A   Clear
10:53 AM 37.9 °F - 19.9 °F 48% 29.87 in 10.0 mi Calm Calm - N/A   Clear
11:53 AM 37.9 °F 34.4 °F 21.0 °F 51% 29.87 in 10.0 mi South 4.6 mph - N/A   Clear
12:53 PM 39.9 °F 35.8 °F 19.9 °F 45% 29.84 in 10.0 mi West 5.8 mph - N/A   Clear
1:53 PM 39.0 °F 33.4 °F 21.9 °F 50% 29.80 in 10.0 mi South 8.1 mph - N/A   Clear
2:53 PM 41.0 °F 38.0 °F 21.0 °F 45% 29.78 in 10.0 mi Variable 4.6 mph - N/A   Clear
3:53 PM 39.9 °F - 21.0 °F 47% 29.76 in 10.0 mi Calm Calm - N/A   Clear
4:53 PM 37.9 °F 34.4 °F 23.0 °F 55% 29.75 in 10.0 mi South 4.6 mph - N/A   Clear
5:53 PM 37.0 °F 32.4 °F 21.9 °F 54% 29.74 in 10.0 mi South 5.8 mph - N/A   Clear
6:53 PM 34.0 °F - 25.0 °F 70% 29.73 in 10.0 mi Calm Calm - N/A   Clear
7:53 PM 33.1 °F - 26.1 °F 75% 29.72 in 10.0 mi Calm Calm - N/A   Mostly Cloudy
8:53 PM 34.0 °F 28.8 °F 26.1 °F 73% 29.72 in 10.0 mi NNW 5.8 mph - N/A   Overcast
9:53 PM 33.1 °F - 27.0 °F 78% 29.71 in 10.0 mi Calm Calm - N/A   Overcast
10:53 PM 36.0 °F 28.0 °F 24.1 °F 62% 29.71 in 10.0 mi NNW 11.5 mph - N/A   Overcast
11:53 PM 35.1 °F 30.1 °F 26.1 °F 70% 29.73 in 10.0 mi North 5.8 mph - N/A   Overcast